Simultaneous Nadir Overpasses (SNOs) Predictions

Prediction of SNOs between AQUA and NOAA-19 Satellite Orbit:

Table of predicted SNOs for the next 14.0 days since TLE Epoch: 4/27/2012
Index Date (AQUA) Time (AQUA) AQUA Lat,Lon Date (NOAA-19) Time (NOAA-19) NOAA-19 Lat,Lon Distance(km) Time Diff (sec)
1 04/28/2012 10:31:49 -47.05, 54.89 04/28/2012 10:31:03 -47.05, 54.88 1.29 46
2 04/28/2012 11:17:54 58.74,-131.82 04/28/2012 11:18:40 58.74,-131.81 0.24 46
3 04/30/2012 15:14:55 -51.21, -14.46 04/30/2012 15:14:34 -51.21, -14.46 0.08 21
4 04/30/2012 16:01:35 60.80, 158.47 04/30/2012 16:02:47 60.80, 158.47 0.12 72
5 05/02/2012 19:58:08 -54.93, -83.75 05/02/2012 19:58:12 -54.93, -83.73 1.69 4
6 05/04/2012 23:55:25 46.04, 33.69 05/04/2012 23:54:28 46.02, 33.69 2.62 57
7 05/05/2012 00:41:47 -57.10,-153.64 05/05/2012 00:42:17 -57.10,-153.64 0.14 30
8 05/07/2012 04:38:35 49.95, -35.83 05/07/2012 04:38:02 49.96, -35.81 1.32 33
9 05/07/2012 05:25:31 -58.95, 136.40 05/07/2012 05:26:27 -58.95, 136.38 1.45 56
10 05/09/2012 09:22:05 52.66,-105.69 05/09/2012 09:21:57 52.66,-105.69 0.20 8




NCC Satellite Simultaneous Nadir Overpasses (SNOs) Prediction Service
